Regional Weather Roundup
Issued by NWS

Home | Current Version | Previous Version | Text Only | Print | Product List | Glossary On
Versions: 1 2 3 4 5 6 7 8 9 10 11 12 13 14 15 16 17 18 19 20 21 22 23 24 25 26 27 28 29 30 31 32 33 34 35 36 37 38 39 40 41 42 43 44 45 46 47 48 49 50
392
ASUS43 KLOT 300508
RWRIL

ILLINOIS REGIONAL WEATHER ROUNDUP
NATIONAL WEATHER SERVICE CHICAGO/ROMEOVILLE IL
1200 AM CDT SUN APR 30 2017

NOTE: "FAIR" INDICATES FEW OR NO CLOUDS BELOW 12,000 FEET WITH NO
SIGNIFICANT WEATHER AND/OR OBSTRUCTIONS TO VISIBILITY.

* THESE STATIONS ARE NOT UNDER NWS QUALITY CONTROL. THEY ALSO MAY NOT
  REPORT WEATHER SUCH AS PRECIPITATION OR FOG.

ILZ001-002-007-009-015-016-024-300600-
NORTHWEST ILLINOIS

CITY           SKY/WX    TMP DP  RH WIND       PRES   REMARKS
MOLINE         NOT AVBL
STERLING*      CLOUDY    43  42  97 NE14G23   29.97F
SAVANNA*       CLOUDY    41  39  93 NE13G18   30.02S
$$

ILZ003-004-008-010-011-017-018-300600-
NORTH CENTRAL ILLINOIS

CITY           SKY/WX    TMP DP  RH WIND       PRES   REMARKS
ROCKFORD       DRIZZLE   44  41  89 NE15G28   30.01F FOG
FREEPORT*      CLOUDY    40  39  97 NE16      30.03F
ROCHELLE*      CLOUDY    43  42  95 NE20G28   29.97F
DE KALB*       CLOUDY    43  42  96 NE20      29.98F
PERU*          CLOUDY    44  42  95 NE17G24   29.93F
$$

ILZ005-006-012>014-019>023-300600-
NORTHEAST ILLINOIS

CITY           SKY/WX    TMP DP  RH WIND       PRES   REMARKS
CHICAGO-OHARE  LGT RAIN  44  41  89 NE18      29.98R FOG
CHICAGO-MIDWAY LGT RAIN  45  44  97 NE20      29.96F FOG
AURORA         CLOUDY    46  43  89 NE20G32   29.94F FOG
LANSING*       DRIZZLE   47  47 100 E10       29.94F
JOLIET*        CLOUDY    46  46  99 NE13G20   29.91F
WAUKEGAN       LGT RAIN  42  42 100 NE16G24   30.05R FOG
DUPAGE AIRPORT LGT RAIN  44  44 100 NE18G28   29.97S FOG
KANKAKEE*      DRIZZLE   48  47  98 NE15      29.89F
WHEELING       LGT RAIN  42  42 100 NE17G29   30.01F FOG
MORRIS*        CLOUDY    45  43  94 NE7       29.90F
ROMEOVILLE*    CLOUDY    44  44 100 NE16G24   29.91F
NORTHERLY ISL    N/A     44  43  96 NE23        N/A
$$

LMZ740>746-300600-
SOUTHERN LAKE MICHIGAN

STATION/POSITION SKY/WX   TEMP    WIND        PRES    VSBY  WAVE
                          AIR SEA DIR/SP/G                  HT/PER
                          (F)     (DEG/KT/KT) (MB)    (MI)  (FT/S)
SOUTHERN BUOY              42 41   50/ 25/ 31 1015.9          5/ 6
HARRISON CRIB              44      50/ 24/ 27   N/A
BURNHAM HARBOR             44      40/ 19/ 23   N/A
CALUMET HARBOR             45      30/ 14/ 19 1014.3F
BURNS HARBOR               47      90/ 13/ 20 1014.9F
MICHIGAN CITY              47      60/ 14/ 19   N/A
MICHIGAN CITY 6N           47 47                N/A           7/ 7
ST. JOSEPH                 47 47  130/ 23/ 33 1015.0          6/ 6
$$

ILZ025>027-034>036-040-047-049-050-058-095>099-300600-
WEST-CENTRAL ILLINOIS

CITY           SKY/WX    TMP DP  RH WIND       PRES   REMARKS
QUINCY         LGT RAIN  44  43  96 NE13      29.87F
GALESBURG*     CLOUDY    43  42  99 NE15G22   29.91S
MACOMB*        CLOUDY    44  44  99 NE12      29.94R
JACKSONVILLE*  LGT RAIN  44  43  97 NE12      29.86F
PITTSFIELD*    LGT RAIN  45  45  98 N12       29.89R
$$

ILZ028>032-037-038-041>044-048-051>054-059>061-300600-
CENTRAL ILLINOIS

CITY           SKY/WX    TMP DP  RH WIND       PRES   REMARKS
PONTIAC        CLOUDY    47  47  98 NE21      29.87F
BLOOMINGTON    CLOUDY    46  45  96 N9        29.89R FOG
PEORIA         CLOUDY    46  45  96 NE14      29.89F
LACON*         CLOUDY    45  44  95 NE6G17    29.91F
LINCOLN*       CLOUDY    48  48  99 N6        29.89R
SPRINGFIELD    LGT RAIN  48  46  93 N7        29.88R FOG
TAYLORVILLE    RAIN      49  49  99 CALM      29.84F
$$

ILZ033-039-045-046-055>057-062-063-300600-
EAST-CENTRAL ILLINOIS

CITY           SKY/WX    TMP DP  RH WIND       PRES   REMARKS
CHAMPAIGN      LGT RAIN  58  56  93 SW9       29.84F
RANTOUL*       LGT RAIN  60  59  98 CALM      29.83F
MATTOON        LGT RAIN  61  61 100 SW9       29.87F
PARIS*         MOCLDY   N/A N/A N/A SE9       29.87F
$$

ILZ079-100>102-300600-
SOUTHWEST ILLINOIS

CITY           SKY/WX    TMP DP  RH WIND       PRES   REMARKS
ALTON          LGT RAIN  54  53  97 E3        29.83R
BELLEVILLE     LGT RAIN  58  58 100 S3        29.84R
CAHOKIA*       LGT RAIN  59  57  93 SE13      29.83S
SPARTA*        LGT RAIN  63  63 100 SE14      29.90R
$$

ILZ064>066-069>071-074>076-080>082-084>086-088>090-092>094-300600-
SOUTH-CENTRAL ILLINOIS

CITY           SKY/WX    TMP DP  RH WIND       PRES   REMARKS
CARBONDALE     RAIN      63  63 100 E9        29.88F FOG
CAIRO*         LGT RAIN  64  64  99 E6        29.88F
EFFINGHAM*     LGT RAIN  63  63 100 SE6       29.89F
MARION         HVY RAIN  64  64 100 S7        29.93R
MT. VERNON     LGT RAIN  63  63 100 SE6       29.89F
CENTRALIA*     LGT RAIN  64  64 100 SE8       29.85F
SALEM*         LGT RAIN  64  62  94 SE6       29.85F
METROPOLIS*    CLOUDY    65  64  93 NE6       29.90F
$$

ILZ067-068-072-073-078-083-087-091-300600-
SOUTHEAST ILLINOIS

CITY           SKY/WX    TMP DP  RH WIND       PRES   REMARKS
LAWRENCEVILLE  CLOUDY    64  64 100 E6        29.89F
FLORA*         LGT RAIN N/A N/A N/A SW3       29.90S
FAIRFIELD*     LGT RAIN  64  64 100 SE3       29.88F
HARRISBURG*    CLOUDY    64  64 100 S7        29.94R
ROBINSON*      CLOUDY    63  62  99 CALM      29.91S
CARMI*         CLOUDY    65  65  99 W8        29.90S
$$

ABBREVIATIONS USED IN REMARKS
   TC - TEMPERATURE IN CELSIUS
  WCI - WIND CHILL INDEX
   HX - HEAT INDEX
  VSB - VISIBILITY
$$





USA.gov is the U.S. government's official web portal to all federal, state and local government web resources and services.